CZ-6A R/B, 66958

Orbit data source: Space-Track

CZ-6A R/B, 66958 is space debris in LEO originally from a launch on Mon, 08 Dec 2025 UTC launched from the Taiyaun Space Center, China (TSC). Debris objects in space refer to the collection of defunct objects orbiting the Earth. Examples of debris include non-operational satellites, rocket bodies, and fragments generated from explosions, collisions, or faulty payload assembly.

Loading next visibility...
Identifier
66958, 2025-287F
Orbit
LEO
Country
Flag of CNCN / PRC
Related business
Manufacturer
SAST
Mission
Spacecraft
Bus & Motor
CZ-6A STAGE 2, YF-115
Mass
~6,000 kg wet, ~6,000 kg dry
Launch date (UTC)
2025-12-08 (6 months ago)
Launch vehicle
Unknown
Launch site
Taiyaun Space Center, China (TSC)
Object type
Payload
Rocket body
Debris
Shape & HBR
Unknown shape, 8.0 m
Radar Cross Section
Large (>1 m²)

Expand to show TLE details & history
Last TLE update: 13 hours ago

TLE from 13 hours ago
0 CZ-6A R/B
1 66958U 25287F   26171.36122236  .00000072  00000-0  38988-4 0  9999
2 66958  86.5052 274.0106 0103490 241.2751 117.7993 13.94945076 26970
Epoch: 2026-06-20T08:40Z
TLE epoch observation values (Epoch: 2026-06-20T08:40:09.611Z)
Latitude
-0.0001°
Longitude
-124.6064°
Altitude
950.145 km
Speed
7.359 km/s
True Right ascension
18h 16m 02s
True Declination
0° 00' 00"
Sunlit
Object was in full shadow at epoch
Visualization orbit readout
Latitude
Unknown
Longitude
Unknown
Altitude
Unknown
Speed
Unknown
Apparent Right ascension
Unknown
Apparent Declination
Unknown
Sunlit
N/A
Visualization observer readout
Local Sidereal Time
08:33:48
Azimuth
Unknown
Elevation
Unknown
Doppler factor
Unknown
Orbital elements
Apogee altitude
983.778 km
Perigee altitude
832.962 km
Semi-major axis
7,286.507 km
Eccentricity
0.01035
Inclination
86.5052°
RAAN
274.0106°
Arg. of periapsis
241.2751°
True anomaly
118.84199°
Mean anomaly
117.7993°
Eccentric anomaly
118.32128°
Mean motion
3.48951 °/min
Orbital period
103.17 mins
BSTAR
0.000038988
Loading maneuver chart data...
Computing Atmospheric mass density...
Loading historical data...
Loading historical data...
Loading historical data...
Loading historical data...
Loading historical data...
Loading historical data...
Loading historical data...

Documentation

Showing up to 5 results
|